Time,TemperatureF,DewpointF,PressureIn,WindDirection,WindDirectionDegrees,WindSpeedMPH,WindSpeedGustMPH,Humidity,HourlyPrecipIn,Conditions,Clouds,dailyrainin,SolarRadiationWatts/m^2,SoftwareType,DateUTC
2013-06-17 00:00:00,82.0,77.4,29.90,SSE,164,7.0,15.2,86,0.00,,---,0.00,0.00,VWS V14.01,2013-06-17 05:00:00,
2013-06-17 00:01:00,82.0,77.4,29.90,SE,142,4.0,15.2,86,0.00,,---,0.00,0.00,VWS V14.01,2013-06-17 05:01:00,
2013-06-17 00:05:00,82.4,77.1,29.90,South,172,6.0,17.2,84,0.00,,---,0.00,0.00,VWS V14.01,2013-06-17 05:05:00,
2013-06-17 00:06:00,82.4,77.1,29.90,South,172,7.0,17.2,84,0.00,,---,0.00,0.00,VWS V14.01,2013-06-17 05:06:00,
2013-06-17 00:10:00,82.4,77.4,29.90,South,177,10.0,18.2,85,0.00,,---,0.00,0.00,VWS V14.01,2013-06-17 05:10:00,
2013-06-17 00:11:00,82.4,77.4,29.90,SE,135,7.0,18.2,85,0.00,,---,0.00,0.00,VWS V14.01,2013-06-17 05:11:00,
2013-06-17 00:15:00,82.2,77.2,29.89,SE,141,10.0,14.2,85,0.00,,---,0.00,0.00,VWS V14.01,2013-06-17 05:15:00,
2013-06-17 00:16:00,82.2,77.2,29.89,SSE,157,6.0,14.2,85,0.00,,---,0.00,0.00,VWS V14.01,2013-06-17 05:16:00,
2013-06-17 00:20:00,82.0,77.1,29.89,South,170,4.0,18.2,85,0.00,,---,0.00,0.00,VWS V14.01,2013-06-17 05:20:00,
2013-06-17 00:21:00,82.0,77.1,29.89,SSE,161,4.0,18.2,85,0.00,,---,0.00,0.00,VWS V14.01,2013-06-17 05:21:00,
2013-06-17 00:25:00,81.8,77.2,29.89,South,169,8.0,18.2,86,0.00,,---,0.00,0.00,VWS V14.01,2013-06-17 05:25:00,
2013-06-17 00:26:00,81.8,76.8,29.89,SSE,153,6.0,18.2,85,0.00,,---,0.00,0.00,VWS V14.01,2013-06-17 05:26:00,
2013-06-17 00:30:00,81.8,76.8,29.89,SSE,150,11.0,18.2,85,0.00,,---,0.00,0.00,VWS V14.01,2013-06-17 05:30:00,
2013-06-17 00:31:00,81.8,76.8,29.89,SSE,158,17.0,18.2,85,0.00,,---,0.00,0.00,VWS V14.01,2013-06-17 05:31:00,
2013-06-17 00:35:00,81.8,76.8,29.89,SSE,147,10.0,19.2,85,0.00,,---,0.00,0.00,VWS V14.01,2013-06-17 05:35:00,
2013-06-17 00:36:00,81.8,76.8,29.89,SE,140,11.0,19.2,85,0.00,,---,0.00,0.00,VWS V14.01,2013-06-17 05:36:00,
2013-06-17 00:40:00,81.8,77.2,29.89,SE,136,3.0,17.2,86,0.00,,---,0.00,0.00,VWS V14.01,2013-06-17 05:40:00,
2013-06-17 00:41:00,81.8,77.2,29.89,South,191,5.0,17.2,86,0.00,,---,0.00,0.00,VWS V14.01,2013-06-17 05:41:00,
2013-06-17 00:45:00,81.8,76.8,29.89,SSE,152,5.0,17.2,85,0.00,,---,0.00,0.00,VWS V14.01,2013-06-17 05:45:00,
2013-06-17 00:46:00,81.8,76.8,29.89,SE,136,5.0,17.2,85,0.00,,---,0.00,0.00,VWS V14.01,2013-06-17 05:46:00,
2013-06-17 00:50:00,81.8,77.2,29.89,SSE,151,3.0,17.2,86,0.00,,---,0.00,0.00,VWS V14.01,2013-06-17 05:50:00,
2013-06-17 00:51:00,81.8,77.2,29.89,SE,144,5.0,17.2,86,0.00,,---,0.00,0.00,VWS V14.01,2013-06-17 05:51:00,
2013-06-17 00:55:00,82.0,77.4,29.89,SE,143,4.0,17.2,86,0.00,,---,0.00,0.00,VWS V14.01,2013-06-17 05:55:00,
2013-06-17 00:56:00,82.0,77.4,29.89,SSE,154,7.0,17.2,86,0.00,,---,0.00,0.00,VWS V14.01,2013-06-17 05:56:00,
2013-06-17 01:00:00,82.0,77.4,29.89,SE,144,4.0,16.2,86,0.00,,---,0.00,0.00,VWS V14.01,2013-06-17 06:00:00,
2013-06-17 01:01:00,82.0,77.4,29.89,SE,130,10.0,16.2,86,0.00,,---,0.00,0.00,VWS V14.01,2013-06-17 06:01:00,
2013-06-17 01:05:00,82.0,77.8,29.89,SE,142,9.0,19.2,87,0.00,,---,0.00,0.00,VWS V14.01,2013-06-17 06:05:00,
2013-06-17 01:06:00,82.0,77.8,29.89,South,178,8.0,19.2,87,0.00,,---,0.00,0.00,VWS V14.01,2013-06-17 06:06:00,
2013-06-17 01:10:00,82.0,77.8,29.89,SSE,153,7.0,20.2,87,0.00,,---,0.00,0.00,VWS V14.01,2013-06-17 06:10:00,
2013-06-17 01:11:00,82.0,77.8,29.89,SE,145,5.0,20.2,87,0.00,,---,0.00,0.00,VWS V14.01,2013-06-17 06:11:00,
2013-06-17 01:15:00,82.0,77.4,29.89,SSE,148,16.0,17.2,86,0.00,,---,0.00,0.00,VWS V14.01,2013-06-17 06:15:00,
2013-06-17 01:16:00,82.0,77.4,29.89,SE,138,9.0,16.2,86,0.00,,---,0.00,0.00,VWS V14.01,2013-06-17 06:16:00,
2013-06-17 01:20:00,82.0,77.4,29.89,SSE,150,11.0,21.2,86,0.00,,---,0.00,0.00,VWS V14.01,2013-06-17 06:20:00,
2013-06-17 01:21:00,82.0,77.4,29.89,SE,142,8.0,21.2,86,0.00,,---,0.00,0.00,VWS V14.01,2013-06-17 06:21:00,
2013-06-17 01:25:00,82.0,77.4,29.89,SSE,152,8.0,16.2,86,0.00,,---,0.00,0.00,VWS V14.01,2013-06-17 06:25:00,
2013-06-17 01:26:00,82.0,77.4,29.89,SE,144,11.0,16.2,86,0.00,,---,0.00,0.00,VWS V14.01,2013-06-17 06:26:00,
2013-06-17 01:30:00,82.0,77.4,29.89,SE,136,11.0,18.2,86,0.00,,---,0.00,0.00,VWS V14.01,2013-06-17 06:30:00,
2013-06-17 01:31:00,82.0,77.4,29.89,South,169,10.0,18.2,86,0.00,,---,0.00,0.00,VWS V14.01,2013-06-17 06:31:00,
2013-06-17 01:35:00,82.0,77.8,29.89,SSE,150,12.0,14.2,87,0.00,,---,0.00,0.00,VWS V14.01,2013-06-17 06:35:00,
2013-06-17 01:36:00,82.0,77.8,29.89,SE,124,10.0,14.2,87,0.00,,---,0.00,0.00,VWS V14.01,2013-06-17 06:36:00,
2013-06-17 01:40:00,81.8,77.2,29.89,ESE,117,9.0,15.2,86,0.00,,---,0.00,0.00,VWS V14.01,2013-06-17 06:40:00,
2013-06-17 01:41:00,81.8,77.2,29.89,SSE,150,11.0,15.2,86,0.00,,---,0.00,0.00,VWS V14.01,2013-06-17 06:41:00,
2013-06-17 01:45:00,81.8,77.2,29.88,South,171,9.0,18.2,86,0.00,,---,0.00,0.00,VWS V14.01,2013-06-17 06:45:00,
2013-06-17 01:46:00,81.8,77.2,29.88,SE,143,11.0,18.2,86,0.00,,---,0.00,0.00,VWS V14.01,2013-06-17 06:46:00,
2013-06-17 01:50:00,81.8,77.6,29.88,SE,130,12.0,15.2,87,0.00,,---,0.00,0.00,VWS V14.01,2013-06-17 06:50:00,
2013-06-17 01:51:00,81.8,77.6,29.88,SSE,153,9.0,15.2,87,0.00,,---,0.00,0.00,VWS V14.01,2013-06-17 06:51:00,
2013-06-17 01:55:00,82.0,77.4,29.88,SE,142,12.0,22.2,86,0.00,,---,0.00,0.00,VWS V14.01,2013-06-17 06:55:00,
2013-06-17 01:56:00,82.0,77.4,29.88,SSE,168,13.0,15.2,86,0.00,,---,0.00,0.00,VWS V14.01,2013-06-17 06:56:00,
2013-06-17 02:00:00,81.8,77.2,29.87,SSE,163,4.0,17.2,86,0.00,,---,0.00,0.00,VWS V14.01,2013-06-17 07:00:00,
2013-06-17 02:01:00,81.8,77.2,29.87,SE,144,5.0,17.2,86,0.00,,---,0.00,0.00,VWS V14.01,2013-06-17 07:01:00,
2013-06-17 02:05:00,81.8,77.6,29.87,SE,140,6.0,16.2,87,0.00,,---,0.00,0.00,VWS V14.01,2013-06-17 07:05:00,
2013-06-17 02:06:00,81.8,77.2,29.87,SE,138,7.0,16.2,86,0.00,,---,0.00,0.00,VWS V14.01,2013-06-17 07:06:00,
2013-06-17 02:10:00,81.8,77.9,29.87,SSE,147,4.0,18.2,88,0.00,,---,0.00,0.00,VWS V14.01,2013-06-17 07:10:00,
2013-06-17 02:11:00,81.8,77.6,29.87,SE,146,5.0,18.2,87,0.00,,---,0.00,0.00,VWS V14.01,2013-06-17 07:11:00,
2013-06-17 02:15:00,81.6,77.7,29.87,SSE,153,4.0,14.2,88,0.00,,---,0.00,0.00,VWS V14.01,2013-06-17 07:15:00,
2013-06-17 02:16:00,81.6,77.7,29.87,South,173,4.0,14.2,88,0.00,,---,0.00,0.00,VWS V14.01,2013-06-17 07:16:00,
2013-06-17 02:20:00,81.6,77.7,29.87,SE,138,6.0,17.2,88,0.00,,---,0.00,0.00,VWS V14.01,2013-06-17 07:20:00,
2013-06-17 02:21:00,81.6,77.7,29.87,SE,138,11.0,17.2,88,0.00,,---,0.00,0.00,VWS V14.01,2013-06-17 07:21:00,
2013-06-17 02:25:00,81.6,77.7,29.87,South,178,9.0,16.2,88,0.00,,---,0.00,0.00,VWS V14.01,2013-06-17 07:25:00,
2013-06-17 02:26:00,81.6,77.7,29.87,SSE,148,7.0,16.2,88,0.00,,---,0.00,0.00,VWS V14.01,2013-06-17 07:26:00,
2013-06-17 02:30:00,81.8,77.6,29.87,SSE,167,5.0,17.2,87,0.00,,---,0.00,0.00,VWS V14.01,2013-06-17 07:30:00,
2013-06-17 02:31:00,81.8,77.6,29.87,SE,146,6.0,17.2,87,0.00,,---,0.00,0.00,VWS V14.01,2013-06-17 07:31:00,
2013-06-17 02:35:00,81.8,77.6,29.87,SSW,199,6.0,18.2,87,0.00,,---,0.00,0.00,VWS V14.01,2013-06-17 07:35:00,
2013-06-17 02:36:00,81.8,77.6,29.87,South,187,10.0,18.2,87,0.00,,---,0.00,0.00,VWS V14.01,2013-06-17 07:36:00,
2013-06-17 02:40:00,81.8,77.6,29.87,South,171,5.0,18.2,87,0.00,,---,0.00,0.00,VWS V14.01,2013-06-17 07:40:00,
2013-06-17 02:41:00,82.0,79.1,29.87,SE,142,9.0,18.2,91,0.00,,---,0.00,0.00,VWS V14.01,2013-06-17 07:41:00,
2013-06-17 02:45:00,82.0,77.8,29.87,SSE,155,6.0,14.2,87,0.00,,---,0.00,0.00,VWS V14.01,2013-06-17 07:45:00,
2013-06-17 02:46:00,82.0,77.8,29.87,South,183,9.0,14.2,87,0.00,,---,0.00,0.00,VWS V14.01,2013-06-17 07:46:00,
2013-06-17 02:50:00,81.8,77.6,29.87,SSE,149,9.0,17.2,87,0.00,,---,0.00,0.00,VWS V14.01,2013-06-17 07:50:00,
2013-06-17 02:51:00,81.8,77.6,29.87,SE,132,4.0,17.2,87,0.00,,---,0.00,0.00,VWS V14.01,2013-06-17 07:51:00,
2013-06-17 02:55:00,82.0,77.8,29.87,SSE,152,7.0,19.2,87,0.00,,---,0.00,0.00,VWS V14.01,2013-06-17 07:55:00,
2013-06-17 02:56:00,82.0,77.8,29.87,SSE,165,10.0,19.2,87,0.00,,---,0.00,0.00,VWS V14.01,2013-06-17 07:56:00,
2013-06-17 03:00:00,81.8,77.9,29.87,SE,142,6.0,16.2,88,0.00,,---,0.00,0.00,VWS V14.01,2013-06-17 08:00:00,
2013-06-17 03:05:00,81.8,77.9,29.87,SE,132,4.0,13.2,88,0.00,,---,0.00,0.00,VWS V14.01,2013-06-17 08:05:00,
2013-06-17 03:10:00,81.6,77.7,29.87,SSE,162,9.0,14.2,88,0.00,,---,0.00,0.00,VWS V14.01,2013-06-17 08:10:00,
2013-06-17 03:15:00,81.6,78.1,29.86,SSE,152,9.0,17.2,89,0.00,,---,0.00,0.00,VWS V14.01,2013-06-17 08:15:00,
2013-06-17 03:20:00,81.4,77.8,29.86,SSE,151,7.0,15.2,89,0.00,,---,0.00,0.00,VWS V14.01,2013-06-17 08:20:00,
2013-06-17 03:25:00,81.4,77.5,29.86,SE,136,5.0,16.2,88,0.00,,---,0.00,0.00,VWS V14.01,2013-06-17 08:25:00,
2013-06-17 03:30:00,81.6,77.7,29.87,SSW,193,13.0,16.2,88,0.00,,---,0.00,0.00,VWS V14.01,2013-06-17 08:30:00,
2013-06-17 03:35:00,81.6,77.7,29.87,SE,138,5.0,14.2,88,0.00,,---,0.00,0.00,VWS V14.01,2013-06-17 08:35:00,
2013-06-17 03:40:00,81.6,78.1,29.87,SE,131,10.0,16.2,89,0.00,,---,0.00,0.00,VWS V14.01,2013-06-17 08:40:00,
2013-06-17 03:45:00,81.6,78.1,29.87,South,172,4.0,16.2,89,0.00,,---,0.00,0.00,VWS V14.01,2013-06-17 08:45:00,
2013-06-17 03:50:00,81.8,78.2,29.87,SE,136,7.0,14.2,89,0.00,,---,0.00,0.00,VWS V14.01,2013-06-17 08:50:00,
2013-06-17 03:55:00,81.8,77.9,29.87,SE,136,6.0,10.2,88,0.00,,---,0.00,0.00,VWS V14.01,2013-06-17 08:55:00,
2013-06-17 04:00:00,82.2,78.3,29.87,SSE,158,3.0,16.2,88,0.00,,---,0.00,0.00,VWS V14.01,2013-06-17 09:00:00,
2013-06-17 04:05:00,82.0,77.8,29.87,SSE,158,11.0,13.2,87,0.00,,---,0.00,0.00,VWS V14.01,2013-06-17 09:05:00,
2013-06-17 04:10:00,81.6,77.7,29.87,SSE,163,13.0,17.2,88,0.00,,---,0.00,0.00,VWS V14.01,2013-06-17 09:10:00,
2013-06-17 04:15:00,81.6,78.1,29.86,South,185,6.0,16.2,89,0.00,,---,0.00,0.00,VWS V14.01,2013-06-17 09:15:00,
2013-06-17 04:20:00,81.4,77.8,29.86,SSE,149,2.0,14.2,89,0.00,,---,0.00,0.00,VWS V14.01,2013-06-17 09:20:00,
2013-06-17 04:25:00,81.2,77.7,29.86,SSE,155,7.0,14.2,89,0.00,,---,0.00,0.00,VWS V14.01,2013-06-17 09:25:00,
2013-06-17 04:30:00,81.2,77.7,29.86,South,180,2.0,16.2,89,0.00,,---,0.00,0.00,VWS V14.01,2013-06-17 09:30:00,
2013-06-17 04:35:00,81.2,77.7,29.86,SSE,156,5.0,12.2,89,0.00,,---,0.00,0.00,VWS V14.01,2013-06-17 09:35:00,
2013-06-17 04:40:00,81.2,77.7,29.86,SSE,149,4.0,12.2,89,0.00,,---,0.00,0.00,VWS V14.01,2013-06-17 09:40:00,
2013-06-17 04:45:00,81.2,78.0,29.85,SSE,153,3.0,15.2,90,0.00,,---,0.00,0.00,VWS V14.01,2013-06-17 09:45:00,
2013-06-17 04:50:00,81.2,77.7,29.85,SSE,148,6.0,12.2,89,0.00,,---,0.00,0.00,VWS V14.01,2013-06-17 09:50:00,
2013-06-17 04:55:00,81.2,77.7,29.85,SSE,159,3.0,11.2,89,0.00,,---,0.00,0.00,VWS V14.01,2013-06-17 09:55:00,
2013-06-17 05:00:00,81.2,77.7,29.85,South,183,7.0,10.2,89,0.00,,---,0.00,0.00,VWS V14.01,2013-06-17 10:00:00,
2013-06-17 05:05:00,81.2,77.7,29.85,SSW,199,4.0,16.2,89,0.00,,---,0.00,0.00,VWS V14.01,2013-06-17 10:05:00,
2013-06-17 05:10:00,81.4,77.8,29.85,South,172,6.0,16.2,89,0.00,,---,0.00,0.00,VWS V14.01,2013-06-17 10:10:00,
2013-06-17 05:15:00,81.6,77.7,29.84,SSW,206,3.0,12.2,88,0.00,,---,0.00,0.00,VWS V14.01,2013-06-17 10:15:00,
2013-06-17 05:20:00,81.4,77.5,29.84,South,182,3.0,13.2,88,0.00,,---,0.00,0.00,VWS V14.01,2013-06-17 10:20:00,
2013-06-17 05:25:00,81.2,77.7,29.84,South,173,3.0,13.2,89,0.00,,---,0.00,0.00,VWS V14.01,2013-06-17 10:25:00,
2013-06-17 05:30:00,81.1,77.9,29.85,SSE,157,2.0,10.2,90,0.00,,---,0.00,0.00,VWS V14.01,2013-06-17 10:30:00,
2013-06-17 05:35:00,81.1,77.9,29.85,SSE,149,4.0,14.2,90,0.00,,---,0.00,0.00,VWS V14.01,2013-06-17 10:35:00,
2013-06-17 05:40:00,81.1,77.9,29.85,South,185,0.0,10.2,90,0.00,,---,0.00,0.00,VWS V14.01,2013-06-17 10:40:00,
2013-06-17 05:45:00,81.1,77.9,29.85,South,183,3.0,10.2,90,0.00,,---,0.00,0.00,VWS V14.01,2013-06-17 10:45:00,
2013-06-17 05:50:00,81.1,77.9,29.85,SSW,196,7.0,15.2,90,0.00,,---,0.00,0.00,VWS V14.01,2013-06-17 10:50:00,
2013-06-17 05:55:00,81.1,77.9,29.85,SW,217,5.0,10.2,90,0.00,,---,0.00,0.00,VWS V14.01,2013-06-17 10:55:00,
2013-06-17 06:00:00,81.1,77.9,29.85,South,178,3.0,12.2,90,0.00,,---,0.00,0.00,VWS V14.01,2013-06-17 11:00:00,
2013-06-17 06:05:00,81.1,77.9,29.85,SSE,155,2.0,8.2,90,0.00,,---,0.00,0.00,VWS V14.01,2013-06-17 11:05:00,
2013-06-17 06:10:00,81.1,77.9,29.85,South,174,4.0,13.2,90,0.00,,---,0.00,0.00,VWS V14.01,2013-06-17 11:10:00,
2013-06-17 06:15:00,81.2,78.0,29.85,South,170,0.0,11.2,90,0.00,,---,0.00,0.00,VWS V14.01,2013-06-17 11:15:00,
2013-06-17 06:20:00,81.2,78.0,29.85,South,179,7.0,10.2,90,0.00,,---,0.00,0.00,VWS V14.01,2013-06-17 11:20:00,
2013-06-17 06:25:00,81.2,78.0,29.85,SE,146,4.0,11.2,90,0.00,,---,0.00,0.00,VWS V14.01,2013-06-17 11:25:00,
2013-06-17 06:30:00,81.1,77.9,29.85,South,191,3.0,7.2,90,0.00,,---,0.00,0.00,VWS V14.01,2013-06-17 11:30:00,
2013-06-17 06:35:00,81.2,78.3,29.85,SSW,200,8.0,11.2,91,0.00,,---,0.00,0.00,VWS V14.01,2013-06-17 11:35:00,
2013-06-17 06:40:00,81.1,78.2,29.85,SSE,153,2.0,5.2,91,0.00,,---,0.00,5.00,VWS V14.01,2013-06-17 11:40:00,
2013-06-17 06:45:00,81.1,78.2,29.86,SSW,192,1.0,10.2,91,0.00,,---,0.00,12.00,VWS V14.01,2013-06-17 11:45:00,
2013-06-17 06:50:00,81.1,78.2,29.86,South,185,3.0,13.2,91,0.00,,---,0.00,12.00,VWS V14.01,2013-06-17 11:50:00,
2013-06-17 06:55:00,81.1,78.2,29.86,SSE,157,8.0,10.2,91,0.00,,---,0.00,18.00,VWS V14.01,2013-06-17 11:55:00,
2013-06-17 07:00:00,81.1,78.2,29.86,South,169,4.0,10.2,91,0.00,,---,0.00,25.00,VWS V14.01,2013-06-17 12:00:00,
2013-06-17 07:05:00,81.2,78.3,29.86,South,169,3.0,8.2,91,0.00,,---,0.00,32.00,VWS V14.01,2013-06-17 12:05:00,
2013-06-17 07:10:00,81.2,78.3,29.86,South,178,3.0,7.2,91,0.00,,---,0.00,25.00,VWS V14.01,2013-06-17 12:10:00,
2013-06-17 07:15:00,81.2,78.3,29.87,SSE,157,4.0,10.2,91,0.00,,---,0.00,33.00,VWS V14.01,2013-06-17 12:15:00,
2013-06-17 07:20:00,81.4,78.5,29.87,ESE,122,3.0,6.2,91,0.00,,---,0.00,32.00,VWS V14.01,2013-06-17 12:20:00,
2013-06-17 07:25:00,81.6,78.4,29.87,SSE,161,6.0,11.2,90,0.00,,---,0.00,44.00,VWS V14.01,2013-06-17 12:25:00,
2013-06-17 07:30:00,81.8,78.6,29.88,South,190,6.0,11.2,90,0.00,,---,0.00,76.00,VWS V14.01,2013-06-17 12:30:00,
2013-06-17 07:35:00,82.0,78.4,29.88,South,173,2.0,7.2,89,0.00,,---,0.00,72.00,VWS V14.01,2013-06-17 12:35:00,
2013-06-17 07:40:00,82.2,78.6,29.88,South,173,4.0,11.2,89,0.00,,---,0.00,86.00,VWS V14.01,2013-06-17 12:40:00,
2013-06-17 07:45:00,82.2,78.6,29.89,South,171,6.0,16.2,89,0.00,,---,0.00,91.00,VWS V14.01,2013-06-17 12:45:00,
2013-06-17 07:50:00,82.2,78.3,29.89,SSE,163,6.0,12.2,88,0.00,,---,0.00,107.00,VWS V14.01,2013-06-17 12:50:00,
2013-06-17 07:55:00,82.4,78.5,29.89,SSW,193,5.0,8.2,88,0.00,,---,0.00,95.00,VWS V14.01,2013-06-17 12:55:00,
2013-06-17 08:00:00,82.6,78.7,29.89,SSE,152,6.0,10.2,88,0.00,,---,0.00,77.00,VWS V14.01,2013-06-17 13:00:00,
2013-06-17 08:05:00,82.6,78.7,29.89,SE,146,10.0,13.2,88,0.00,,---,0.00,97.00,VWS V14.01,2013-06-17 13:05:00,
2013-06-17 08:10:00,82.8,78.9,29.89,South,177,5.0,9.2,88,0.00,,---,0.00,123.00,VWS V14.01,2013-06-17 13:10:00,
2013-06-17 08:15:00,83.2,78.9,29.89,SE,146,6.0,12.2,87,0.00,,---,0.00,130.00,VWS V14.01,2013-06-17 13:15:00,
2013-06-17 08:20:00,83.4,78.4,29.89,SE,146,6.0,11.2,85,0.00,,---,0.00,135.00,VWS V14.01,2013-06-17 13:20:00,
2013-06-17 08:25:00,83.4,78.8,29.89,SE,137,2.0,14.2,86,0.00,,---,0.00,162.00,VWS V14.01,2013-06-17 13:25:00,
2013-06-17 08:30:00,83.8,78.8,29.89,SSE,159,7.0,12.2,85,0.00,,---,0.00,155.00,VWS V14.01,2013-06-17 13:30:00,
2013-06-17 08:35:00,84.1,79.1,29.89,SSE,161,5.0,8.2,85,0.00,,---,0.00,114.00,VWS V14.01,2013-06-17 13:35:00,
2013-06-17 08:40:00,84.5,79.1,29.89,SSE,161,4.0,12.2,84,0.00,,---,0.00,144.00,VWS V14.01,2013-06-17 13:40:00,
2013-06-17 08:45:00,84.9,79.2,29.89,SSE,162,8.0,16.2,83,0.00,,---,0.00,160.00,VWS V14.01,2013-06-17 13:45:00,
2013-06-17 08:50:00,84.5,78.8,29.89,SSE,159,9.0,18.2,83,0.00,,---,0.00,155.00,VWS V14.01,2013-06-17 13:50:00,
2013-06-17 08:55:00,84.7,79.0,29.89,SSE,157,5.0,15.2,83,0.00,,---,0.00,165.00,VWS V14.01,2013-06-17 13:55:00,
2013-06-17 09:00:00,84.5,78.8,29.89,South,169,9.0,17.2,83,0.00,,---,0.00,199.00,VWS V14.01,2013-06-17 14:00:00,
2013-06-17 09:05:00,84.9,79.2,29.89,South,182,9.0,16.2,83,0.00,,---,0.00,241.00,VWS V14.01,2013-06-17 14:05:00,
2013-06-17 09:10:00,85.1,79.0,29.89,SSE,147,4.0,15.2,82,0.00,,---,0.00,214.00,VWS V14.01,2013-06-17 14:10:00,
2013-06-17 09:15:00,85.5,79.0,29.89,SSE,156,11.0,16.2,81,0.00,,---,0.00,190.00,VWS V14.01,2013-06-17 14:15:00,
2013-06-17 09:20:00,85.3,78.8,29.90,SE,146,7.0,19.2,81,0.00,,---,0.00,230.00,VWS V14.01,2013-06-17 14:20:00,
2013-06-17 09:25:00,84.9,78.4,29.90,SE,142,6.0,18.2,81,0.00,,---,0.00,234.00,VWS V14.01,2013-06-17 14:25:00,
2013-06-17 09:30:00,85.1,78.6,29.90,SE,142,10.0,16.2,81,0.00,,---,0.00,232.00,VWS V14.01,2013-06-17 14:30:00,
2013-06-17 09:35:00,85.1,78.6,29.90,SSE,166,7.0,18.2,81,0.00,,---,0.00,274.00,VWS V14.01,2013-06-17 14:35:00,
2013-06-17 09:40:00,86.1,79.2,29.90,SSE,168,7.0,14.2,80,0.00,,---,0.00,287.00,VWS V14.01,2013-06-17 14:40:00,
2013-06-17 09:45:00,86.1,78.8,29.90,SE,141,3.0,18.2,79,0.00,,---,0.00,343.00,VWS V14.01,2013-06-17 14:45:00,
2013-06-17 09:50:00,86.3,78.6,29.89,SSE,163,11.0,17.2,78,0.00,,---,0.00,209.00,VWS V14.01,2013-06-17 14:50:00,
2013-06-17 09:55:00,86.5,79.2,29.89,SSE,165,4.0,15.2,79,0.00,,---,0.00,541.00,VWS V14.01,2013-06-17 14:55:00,
2013-06-17 10:00:00,86.7,79.0,29.89,SSE,148,13.0,18.2,78,0.00,,---,0.00,612.00,VWS V14.01,2013-06-17 15:00:00,
2013-06-17 10:05:00,86.5,78.4,29.89,SE,143,17.0,21.2,77,0.00,,---,0.00,631.00,VWS V14.01,2013-06-17 15:05:00,
2013-06-17 10:10:00,86.3,78.2,29.89,SE,142,10.0,15.2,77,0.00,,---,0.00,229.00,VWS V14.01,2013-06-17 15:10:00,
2013-06-17 10:15:00,86.3,78.6,29.89,SSE,153,9.0,15.2,78,0.00,,---,0.00,671.00,VWS V14.01,2013-06-17 15:15:00,
2013-06-17 10:20:00,86.7,78.6,29.90,SSE,155,7.0,14.2,77,0.00,,---,0.00,629.00,VWS V14.01,2013-06-17 15:20:00,
2013-06-17 10:25:00,86.5,78.4,29.90,South,180,10.0,18.2,77,0.00,,---,0.00,714.00,VWS V14.01,2013-06-17 15:25:00,
2013-06-17 10:30:00,86.3,78.6,29.90,SE,136,9.0,19.2,78,0.00,,---,0.00,710.00,VWS V14.01,2013-06-17 15:30:00,
2013-06-17 10:35:00,86.3,78.2,29.90,SSE,147,6.0,17.2,77,0.00,,---,0.00,712.00,VWS V14.01,2013-06-17 15:35:00,
2013-06-17 10:40:00,87.2,78.7,29.90,SE,138,6.0,18.2,76,0.00,,---,0.00,717.00,VWS V14.01,2013-06-17 15:40:00,
2013-06-17 10:45:00,87.6,78.3,29.90,SE,127,14.0,18.2,74,0.00,,---,0.00,761.00,VWS V14.01,2013-06-17 15:45:00,
2013-06-17 10:50:00,87.6,79.1,29.90,SSW,197,12.0,19.2,76,0.00,,---,0.00,747.00,VWS V14.01,2013-06-17 15:50:00,
2013-06-17 10:55:00,87.8,78.9,29.90,SE,138,6.0,16.2,75,0.00,,---,0.00,752.00,VWS V14.01,2013-06-17 15:55:00,
2013-06-17 11:00:00,88.0,78.7,29.90,SSE,165,6.0,18.2,74,0.00,,---,0.00,765.00,VWS V14.01,2013-06-17 16:00:00,
2013-06-17 11:05:00,88.2,78.4,29.90,SSE,158,16.0,19.2,73,0.00,,---,0.00,779.00,VWS V14.01,2013-06-17 16:05:00,
2013-06-17 11:10:00,87.4,78.5,29.90,SSE,163,5.0,16.2,75,0.00,,---,0.00,793.00,VWS V14.01,2013-06-17 16:10:00,
2013-06-17 11:15:00,87.8,78.5,29.90,SE,141,5.0,17.2,74,0.00,,---,0.00,798.00,VWS V14.01,2013-06-17 16:15:00,
2013-06-17 11:20:00,88.2,78.9,29.91,SSE,165,6.0,18.2,74,0.00,,---,0.00,826.00,VWS V14.01,2013-06-17 16:20:00,
2013-06-17 11:25:00,88.6,78.4,29.91,SSE,161,7.0,14.2,72,0.00,,---,0.00,851.00,VWS V14.01,2013-06-17 16:25:00,
2013-06-17 11:30:00,88.2,78.0,29.91,SSE,148,14.0,18.2,72,0.00,,---,0.00,844.00,VWS V14.01,2013-06-17 16:30:00,
2013-06-17 11:35:00,88.4,78.7,29.91,ESE,117,12.0,18.2,73,0.00,,---,0.00,844.00,VWS V14.01,2013-06-17 16:35:00,
2013-06-17 11:40:00,88.2,78.4,29.91,South,187,6.0,17.2,73,0.00,,---,0.00,849.00,VWS V14.01,2013-06-17 16:40:00,
2013-06-17 11:45:00,88.2,78.9,29.91,SSE,163,6.0,18.2,74,0.00,,---,0.00,868.00,VWS V14.01,2013-06-17 16:45:00,
2013-06-17 11:50:00,88.6,78.4,29.90,SSE,161,9.0,17.2,72,0.00,,---,0.00,879.00,VWS V14.01,2013-06-17 16:50:00,
2013-06-17 11:55:00,88.8,78.2,29.90,South,190,7.0,17.2,71,0.00,,---,0.00,888.00,VWS V14.01,2013-06-17 16:55:00,
2013-06-17 12:00:00,88.8,77.8,29.90,SE,130,10.0,19.2,70,0.00,,---,0.00,902.00,VWS V14.01,2013-06-17 17:00:00,
2013-06-17 12:05:00,88.8,78.2,29.90,SE,144,7.0,19.2,71,0.00,,---,0.00,907.00,VWS V14.01,2013-06-17 17:05:00,
2013-06-17 12:10:00,88.4,77.8,29.90,SSE,159,9.0,19.2,71,0.00,,---,0.00,914.00,VWS V14.01,2013-06-17 17:10:00,
2013-06-17 12:15:00,88.8,77.8,29.90,SE,130,14.0,17.2,70,0.00,,---,0.00,919.00,VWS V14.01,2013-06-17 17:15:00,
2013-06-17 12:20:00,89.0,77.5,29.90,SE,134,11.0,17.2,69,0.00,,---,0.00,926.00,VWS V14.01,2013-06-17 17:20:00,
2013-06-17 12:25:00,89.3,77.4,29.90,SSE,166,6.0,16.2,68,0.00,,---,0.00,935.00,VWS V14.01,2013-06-17 17:25:00,
2013-06-17 12:30:00,89.7,78.6,29.90,SE,129,8.0,19.2,70,0.00,,---,0.00,939.00,VWS V14.01,2013-06-17 17:30:00,
2013-06-17 12:35:00,89.7,78.6,29.90,SSE,161,15.0,18.2,70,0.00,,---,0.00,947.00,VWS V14.01,2013-06-17 17:35:00,
2013-06-17 12:40:00,89.0,78.4,29.90,SE,144,6.0,19.2,71,0.00,,---,0.00,949.00,VWS V14.01,2013-06-17 17:40:00,
2013-06-17 12:45:00,89.3,78.2,29.90,SE,145,11.0,19.2,70,0.00,,---,0.00,958.00,VWS V14.01,2013-06-17 17:45:00,
2013-06-17 12:50:00,89.3,78.2,29.90,SE,133,6.0,18.2,70,0.00,,---,0.00,958.00,VWS V14.01,2013-06-17 17:50:00,
2013-06-17 12:55:00,89.9,78.8,29.90,SE,134,13.0,18.2,70,0.00,,---,0.00,963.00,VWS V14.01,2013-06-17 17:55:00,
2013-06-17 13:00:00,89.3,78.7,29.90,SE,128,14.0,18.2,71,0.00,,---,0.00,962.00,VWS V14.01,2013-06-17 18:00:00,
2013-06-17 13:05:00,89.7,78.6,29.90,SSE,150,17.0,19.2,70,0.00,,---,0.00,967.00,VWS V14.01,2013-06-17 18:05:00,
2013-06-17 13:10:00,89.9,78.8,29.90,SE,140,14.0,17.2,70,0.00,,---,0.00,970.00,VWS V14.01,2013-06-17 18:10:00,
2013-06-17 13:15:00,89.7,78.6,29.90,SE,144,11.0,20.2,70,0.00,,---,0.00,977.00,VWS V14.01,2013-06-17 18:15:00,
2013-06-17 13:20:00,89.0,77.9,29.90,ESE,117,14.0,18.2,70,0.00,,---,0.00,974.00,VWS V14.01,2013-06-17 18:20:00,
2013-06-17 13:25:00,89.0,78.8,29.90,ESE,104,6.0,20.2,72,0.00,,---,0.00,979.00,VWS V14.01,2013-06-17 18:25:00,
2013-06-17 13:30:00,89.7,78.6,29.90,ESE,120,13.0,20.2,70,0.00,,---,0.00,977.00,VWS V14.01,2013-06-17 18:30:00,
2013-06-17 13:35:00,89.7,78.6,29.89,ESE,121,10.0,18.2,70,0.00,,---,0.00,977.00,VWS V14.01,2013-06-17 18:35:00,
2013-06-17 13:40:00,89.5,78.9,29.89,SE,131,13.0,20.2,71,0.00,,---,0.00,984.00,VWS V14.01,2013-06-17 18:40:00,
2013-06-17 13:45:00,89.7,78.6,29.89,SE,142,10.0,20.2,70,0.00,,---,0.00,979.00,VWS V14.01,2013-06-17 18:45:00,
2013-06-17 13:50:00,89.9,78.4,29.89,SE,146,11.0,19.2,69,0.00,,---,0.00,974.00,VWS V14.01,2013-06-17 18:50:00,
2013-06-17 13:55:00,90.5,78.9,29.89,SE,137,10.0,15.2,69,0.00,,---,0.00,988.00,VWS V14.01,2013-06-17 18:55:00,
2013-06-17 14:00:00,90.1,78.6,29.89,East,89,11.0,17.2,69,0.00,,---,0.00,986.00,VWS V14.01,2013-06-17 19:00:00,
2013-06-17 14:05:00,90.5,79.8,29.89,East,101,8.0,14.2,71,0.00,,---,0.00,995.00,VWS V14.01,2013-06-17 19:05:00,
2013-06-17 14:10:00,90.1,79.0,29.89,ESE,121,5.0,18.2,70,0.00,,---,0.00,983.00,VWS V14.01,2013-06-17 19:10:00,
2013-06-17 14:15:00,90.5,79.4,29.89,ESE,123,6.0,17.2,70,0.00,,---,0.00,976.00,VWS V14.01,2013-06-17 19:15:00,
2013-06-17 14:20:00,90.1,79.4,29.89,SE,134,13.0,17.2,71,0.00,,---,0.00,969.00,VWS V14.01,2013-06-17 19:20:00,
2013-06-17 14:25:00,90.3,79.6,29.89,East,100,11.0,17.2,71,0.00,,---,0.00,969.00,VWS V14.01,2013-06-17 19:25:00,
2013-06-17 14:30:00,90.5,79.4,29.89,ESE,117,13.0,17.2,70,0.00,,---,0.00,969.00,VWS V14.01,2013-06-17 19:30:00,
2013-06-17 14:35:00,89.3,79.5,29.88,SE,130,12.0,18.2,73,0.00,,---,0.00,970.00,VWS V14.01,2013-06-17 19:35:00,
2013-06-17 14:40:00,89.5,78.9,29.88,ESE,112,9.0,21.2,71,0.00,,---,0.00,976.00,VWS V14.01,2013-06-17 19:40:00,
2013-06-17 14:45:00,90.1,79.4,29.88,SE,132,10.0,18.2,71,0.00,,---,0.00,953.00,VWS V14.01,2013-06-17 19:45:00,
2013-06-17 14:50:00,90.1,79.9,29.88,SE,140,21.0,22.2,72,0.00,,---,0.00,947.00,VWS V14.01,2013-06-17 19:50:00,
2013-06-17 14:55:00,89.3,79.1,29.88,SE,140,16.0,18.2,72,0.00,,---,0.00,960.00,VWS V14.01,2013-06-17 19:55:00,
2013-06-17 15:00:00,89.0,79.6,29.88,SE,132,15.0,16.2,74,0.00,,---,0.00,940.00,VWS V14.01,2013-06-17 20:00:00,
2013-06-17 15:05:00,89.7,79.1,29.87,SE,130,13.0,18.2,71,0.00,,---,0.00,925.00,VWS V14.01,2013-06-17 20:05:00,
2013-06-17 15:10:00,89.7,79.1,29.87,SE,125,16.0,17.2,71,0.00,,---,0.00,963.00,VWS V14.01,2013-06-17 20:10:00,
2013-06-17 15:15:00,89.9,78.8,29.87,SE,130,12.0,23.2,70,0.00,,---,0.00,916.00,VWS V14.01,2013-06-17 20:15:00,
2013-06-17 15:20:00,89.9,79.2,29.87,ESE,114,13.0,19.2,71,0.00,,---,0.00,921.00,VWS V14.01,2013-06-17 20:20:00,
2013-06-17 15:25:00,89.5,79.3,29.87,SE,127,10.0,19.2,72,0.00,,---,0.00,904.00,VWS V14.01,2013-06-17 20:25:00,
2013-06-17 15:30:00,89.5,79.7,29.87,SE,139,11.0,22.2,73,0.00,,---,0.00,881.00,VWS V14.01,2013-06-17 20:30:00,
2013-06-17 15:35:00,89.7,79.5,29.86,SE,142,12.0,19.2,72,0.00,,---,0.00,877.00,VWS V14.01,2013-06-17 20:35:00,
2013-06-17 15:40:00,89.3,79.1,29.86,ESE,118,18.0,19.2,72,0.00,,---,0.00,849.00,VWS V14.01,2013-06-17 20:40:00,
2013-06-17 15:45:00,89.3,78.7,29.86,SE,136,12.0,22.2,71,0.00,,---,0.00,912.00,VWS V14.01,2013-06-17 20:45:00,
2013-06-17 15:50:00,88.8,78.6,29.86,SSE,167,12.0,20.2,72,0.00,,---,0.00,898.00,VWS V14.01,2013-06-17 20:50:00,
2013-06-17 15:55:00,88.8,79.0,29.86,ESE,123,8.0,21.2,73,0.00,,---,0.00,921.00,VWS V14.01,2013-06-17 20:55:00,
2013-06-17 16:00:00,88.6,78.8,29.86,SSE,156,6.0,18.2,73,0.00,,---,0.00,831.00,VWS V14.01,2013-06-17 21:00:00,
2013-06-17 16:05:00,88.6,78.0,29.85,SSE,150,13.0,21.2,71,0.00,,---,0.00,830.00,VWS V14.01,2013-06-17 21:05:00,
2013-06-17 16:10:00,88.4,79.1,29.85,SE,142,22.0,23.2,74,0.00,,---,0.00,807.00,VWS V14.01,2013-06-17 21:10:00,
2013-06-17 16:15:00,88.8,79.4,29.85,SSE,155,10.0,21.2,74,0.00,,---,0.00,789.00,VWS V14.01,2013-06-17 21:15:00,
2013-06-17 16:20:00,89.0,78.8,29.85,SSE,157,14.0,20.2,72,0.00,,---,0.00,809.00,VWS V14.01,2013-06-17 21:20:00,
2013-06-17 16:25:00,89.3,79.1,29.85,SE,126,10.0,18.2,72,0.00,,---,0.00,838.00,VWS V14.01,2013-06-17 21:25:00,
2013-06-17 16:30:00,88.8,79.0,29.85,East,100,8.0,21.2,73,0.00,,---,0.00,735.00,VWS V14.01,2013-06-17 21:30:00,
2013-06-17 16:35:00,88.4,79.1,29.84,SSE,154,12.0,21.2,74,0.00,,---,0.00,772.00,VWS V14.01,2013-06-17 21:35:00,
2013-06-17 16:40:00,88.0,78.7,29.84,SE,134,14.0,21.2,74,0.00,,---,0.00,763.00,VWS V14.01,2013-06-17 21:40:00,
2013-06-17 16:45:00,88.4,79.1,29.84,SE,140,16.0,22.2,74,0.00,,---,0.00,721.00,VWS V14.01,2013-06-17 21:45:00,
2013-06-17 16:50:00,88.6,78.8,29.84,SE,142,17.0,23.2,73,0.00,,---,0.00,689.00,VWS V14.01,2013-06-17 21:50:00,
2013-06-17 16:55:00,87.6,78.3,29.84,SSE,161,11.0,23.2,74,0.00,,---,0.00,666.00,VWS V14.01,2013-06-17 21:55:00,
2013-06-17 17:00:00,88.0,79.1,29.84,SSE,150,6.0,22.2,75,0.00,,---,0.00,647.00,VWS V14.01,2013-06-17 22:00:00,
2013-06-17 17:05:00,88.0,78.3,29.83,SE,133,16.0,20.2,73,0.00,,---,0.00,619.00,VWS V14.01,2013-06-17 22:05:00,
2013-06-17 17:10:00,88.0,78.7,29.83,SE,132,14.0,20.2,74,0.00,,---,0.00,640.00,VWS V14.01,2013-06-17 22:10:00,
2013-06-17 17:15:00,88.2,78.4,29.83,ESE,121,19.0,20.2,73,0.00,,---,0.00,606.00,VWS V14.01,2013-06-17 22:15:00,
2013-06-17 17:20:00,88.0,77.8,29.83,South,184,11.0,20.2,72,0.00,,---,0.00,584.00,VWS V14.01,2013-06-17 22:20:00,
2013-06-17 17:25:00,87.8,77.7,29.83,SSE,165,12.0,18.2,72,0.00,,---,0.00,570.00,VWS V14.01,2013-06-17 22:25:00,
2013-06-17 17:30:00,88.2,78.0,29.83,ESE,117,13.0,17.2,72,0.00,,---,0.00,552.00,VWS V14.01,2013-06-17 22:30:00,
2013-06-17 17:35:00,87.8,77.2,29.82,SE,126,11.0,20.2,71,0.00,,---,0.00,543.00,VWS V14.01,2013-06-17 22:35:00,
2013-06-17 17:40:00,87.4,78.1,29.82,SSE,153,10.0,20.2,74,0.00,,---,0.00,512.00,VWS V14.01,2013-06-17 22:40:00,
2013-06-17 17:45:00,88.0,77.8,29.82,ESE,123,13.0,18.2,72,0.00,,---,0.00,492.00,VWS V14.01,2013-06-17 22:45:00,
2013-06-17 17:50:00,87.6,78.3,29.82,SSE,151,11.0,17.2,74,0.00,,---,0.00,482.00,VWS V14.01,2013-06-17 22:50:00,
2013-06-17 17:55:00,87.2,77.9,29.82,SSE,150,10.0,17.2,74,0.00,,---,0.00,457.00,VWS V14.01,2013-06-17 22:55:00,
2013-06-17 18:00:00,86.7,77.4,29.82,ESE,117,14.0,16.2,74,0.00,,---,0.00,439.00,VWS V14.01,2013-06-17 23:00:00,
2013-06-17 18:05:00,86.5,76.8,29.82,SSE,157,10.0,22.2,73,0.00,,---,0.00,429.00,VWS V14.01,2013-06-17 23:05:00,
2013-06-17 18:10:00,86.7,77.4,29.82,SE,138,18.0,20.2,74,0.00,,---,0.00,406.00,VWS V14.01,2013-06-17 23:10:00,
2013-06-17 18:14:00,86.7,77.0,29.82,SE,146,14.0,21.2,73,0.00,,---,0.00,399.00,VWS V14.01,2013-06-17 23:14:00,
2013-06-17 18:15:00,86.7,77.0,29.81,SSE,155,4.0,21.2,73,0.00,,---,0.00,397.00,VWS V14.01,2013-06-17 23:15:00,
2013-06-17 18:19:00,87.0,77.7,29.81,SE,139,14.0,22.2,74,0.00,,---,0.00,371.00,VWS V14.01,2013-06-17 23:19:00,
2013-06-17 18:20:00,86.7,77.4,29.81,SE,138,9.0,22.2,74,0.00,,---,0.00,369.00,VWS V14.01,2013-06-17 23:20:00,
2013-06-17 18:24:00,86.1,77.2,29.81,SE,130,15.0,22.2,75,0.00,,---,0.00,357.00,VWS V14.01,2013-06-17 23:24:00,
2013-06-17 18:25:00,86.1,77.7,29.81,SE,142,17.0,22.2,76,0.00,,---,0.00,352.00,VWS V14.01,2013-06-17 23:25:00,
2013-06-17 18:29:00,85.9,77.5,29.81,SE,126,12.0,21.2,76,0.00,,---,0.00,332.00,VWS V14.01,2013-06-17 23:29:00,
2013-06-17 18:30:00,85.9,77.1,29.81,SSE,167,11.0,21.2,75,0.00,,---,0.00,329.00,VWS V14.01,2013-06-17 23:30:00,
2013-06-17 18:34:00,85.9,77.1,29.81,SE,137,13.0,20.2,75,0.00,,---,0.00,320.00,VWS V14.01,2013-06-17 23:34:00,
2013-06-17 18:35:00,85.9,77.5,29.81,SSE,166,4.0,20.2,76,0.00,,---,0.00,308.00,VWS V14.01,2013-06-17 23:35:00,
2013-06-17 18:39:00,85.7,77.3,29.81,SSE,159,12.0,21.2,76,0.00,,---,0.00,302.00,VWS V14.01,2013-06-17 23:39:00,
2013-06-17 18:40:00,85.5,77.5,29.81,ESE,116,14.0,21.2,77,0.00,,---,0.00,287.00,VWS V14.01,2013-06-17 23:40:00,
2013-06-17 18:44:00,85.7,78.1,29.81,SE,135,9.0,19.2,78,0.00,,---,0.00,278.00,VWS V14.01,2013-06-17 23:44:00,
2013-06-17 18:45:00,85.9,77.9,29.80,SE,132,9.0,19.2,77,0.00,,---,0.00,279.00,VWS V14.01,2013-06-17 23:45:00,
2013-06-17 18:50:00,85.9,77.5,29.80,South,170,11.0,17.2,76,0.00,,---,0.00,267.00,VWS V14.01,2013-06-17 23:50:00,
2013-06-17 18:55:00,85.1,77.1,29.80,SE,134,9.0,20.2,77,0.00,,---,0.00,243.00,VWS V14.01,2013-06-17 23:55:00,
2013-06-17 19:00:00,85.1,77.5,29.80,SSE,150,10.0,19.2,78,0.00,,---,0.00,262.00,VWS V14.01,2013-06-18 00:00:00,
2013-06-17 19:05:00,85.1,77.5,29.81,ESE,115,5.0,19.2,78,0.00,,---,0.00,167.00,VWS V14.01,2013-06-18 00:05:00,
2013-06-17 19:09:00,84.9,77.3,29.81,SSE,153,14.0,19.2,78,0.00,,---,0.00,220.00,VWS V14.01,2013-06-18 00:09:00,
2013-06-17 19:10:00,85.1,77.9,29.81,SE,144,13.0,19.2,79,0.00,,---,0.00,218.00,VWS V14.01,2013-06-18 00:10:00,
2013-06-17 19:14:00,84.9,77.3,29.81,SSE,149,10.0,24.2,78,0.00,,---,0.00,202.00,VWS V14.01,2013-06-18 00:14:00,
2013-06-17 19:15:00,84.9,77.3,29.81,SSE,149,12.0,24.2,78,0.00,,---,0.00,199.00,VWS V14.01,2013-06-18 00:15:00,
2013-06-17 19:19:00,84.9,77.7,29.81,SE,135,11.0,19.2,79,0.00,,---,0.00,90.00,VWS V14.01,2013-06-18 00:19:00,
2013-06-17 19:20:00,84.9,77.7,29.81,SE,136,10.0,19.2,79,0.00,,---,0.00,120.00,VWS V14.01,2013-06-18 00:20:00,
2013-06-17 19:24:00,84.5,77.3,29.81,SSE,163,10.0,22.2,79,0.00,,---,0.00,70.00,VWS V14.01,2013-06-18 00:24:00,
2013-06-17 19:25:00,84.5,77.3,29.81,East,92,9.0,22.2,79,0.00,,---,0.00,77.00,VWS V14.01,2013-06-18 00:25:00,
2013-06-17 19:29:00,84.3,77.1,29.81,SSE,165,15.0,16.2,79,0.00,,---,0.00,88.00,VWS V14.01,2013-06-18 00:29:00,
2013-06-17 19:30:00,84.1,76.9,29.81,South,173,6.0,17.2,79,0.00,,---,0.00,111.00,VWS V14.01,2013-06-18 00:30:00,
2013-06-17 19:34:00,84.0,76.8,29.81,SSE,153,15.0,17.2,79,0.00,,---,0.00,69.00,VWS V14.01,2013-06-18 00:34:00,
2013-06-17 19:35:00,84.0,77.2,29.81,ESE,115,6.0,18.2,80,0.00,,---,0.00,58.00,VWS V14.01,2013-06-18 00:35:00,
2013-06-17 19:39:00,83.8,77.0,29.81,SE,138,11.0,19.2,80,0.00,,---,0.00,51.00,VWS V14.01,2013-06-18 00:39:00,
2013-06-17 19:40:00,83.8,77.0,29.81,SSE,162,9.0,19.2,80,0.00,,---,0.00,49.00,VWS V14.01,2013-06-18 00:40:00,
2013-06-17 19:44:00,83.6,77.2,29.81,SSE,151,9.0,16.2,81,0.00,,---,0.00,42.00,VWS V14.01,2013-06-18 00:44:00,
2013-06-17 19:45:00,83.6,77.2,29.81,SSE,148,12.0,17.2,81,0.00,,---,0.00,46.00,VWS V14.01,2013-06-18 00:45:00,
2013-06-17 19:49:00,83.6,77.2,29.81,ESE,115,14.0,17.2,81,0.00,,---,0.00,40.00,VWS V14.01,2013-06-18 00:49:00,
2013-06-17 19:50:00,83.6,77.2,29.81,SE,136,10.0,17.2,81,0.00,,---,0.00,44.00,VWS V14.01,2013-06-18 00:50:00,
2013-06-17 19:54:00,83.6,76.8,29.81,SSE,157,7.0,17.2,80,0.00,,---,0.00,37.00,VWS V14.01,2013-06-18 00:54:00,
2013-06-17 19:55:00,83.6,76.8,29.81,South,175,5.0,17.2,80,0.00,,---,0.00,37.00,VWS V14.01,2013-06-18 00:55:00,
2013-06-17 19:59:00,83.8,77.0,29.81,SE,132,12.0,17.2,80,0.00,,---,0.00,33.00,VWS V14.01,2013-06-18 00:59:00,
2013-06-17 20:00:00,83.8,78.4,29.82,SSE,157,14.0,17.2,84,0.00,,---,0.00,33.00,VWS V14.01,2013-06-18 01:00:00,
2013-06-17 20:04:00,83.8,77.3,29.82,ESE,117,11.0,19.2,81,0.00,,---,0.00,25.00,VWS V14.01,2013-06-18 01:04:00,
2013-06-17 20:05:00,83.6,77.2,29.82,SSE,150,13.0,19.2,81,0.00,,---,0.00,23.00,VWS V14.01,2013-06-18 01:05:00,
2013-06-17 20:09:00,83.4,77.0,29.82,SSE,157,4.0,18.2,81,0.00,,---,0.00,18.00,VWS V14.01,2013-06-18 01:09:00,
2013-06-17 20:10:00,83.4,77.0,29.82,SE,137,9.0,18.2,81,0.00,,---,0.00,16.00,VWS V14.01,2013-06-18 01:10:00,
2013-06-17 20:14:00,83.2,76.8,29.82,SE,136,11.0,17.2,81,0.00,,---,0.00,9.00,VWS V14.01,2013-06-18 01:14:00,
2013-06-17 20:15:00,83.2,77.1,29.81,SE,143,8.0,17.2,82,0.00,,---,0.00,9.00,VWS V14.01,2013-06-18 01:15:00,
2013-06-17 20:19:00,83.0,76.9,29.81,SSE,167,12.0,18.2,82,0.00,,---,0.00,5.00,VWS V14.01,2013-06-18 01:19:00,
2013-06-17 20:20:00,83.0,76.9,29.81,SSE,147,5.0,22.2,82,0.00,,---,0.00,5.00,VWS V14.01,2013-06-18 01:20:00,
2013-06-17 20:24:00,82.8,76.8,29.81,SSE,153,9.0,17.2,82,0.00,,---,0.00,0.00,VWS V14.01,2013-06-18 01:24:00,
2013-06-17 20:25:00,82.8,77.1,29.81,SSE,165,13.0,17.2,83,0.00,,---,0.00,0.00,VWS V14.01,2013-06-18 01:25:00,
2013-06-17 20:29:00,82.8,77.1,29.81,SE,138,5.0,16.2,83,0.00,,---,0.00,0.00,VWS V14.01,2013-06-18 01:29:00,
2013-06-17 20:30:00,83.0,76.9,29.81,SSE,148,6.0,16.2,82,0.00,,---,0.00,0.00,VWS V14.01,2013-06-18 01:30:00,
2013-06-17 20:34:00,82.8,76.8,29.81,SE,133,9.0,20.2,82,0.00,,---,0.00,0.00,VWS V14.01,2013-06-18 01:34:00,
2013-06-17 20:35:00,82.8,76.8,29.81,SE,129,12.0,20.2,82,0.00,,---,0.00,0.00,VWS V14.01,2013-06-18 01:35:00,
2013-06-17 20:39:00,82.6,76.9,29.81,ESE,117,11.0,15.2,83,0.00,,---,0.00,0.00,VWS V14.01,2013-06-18 01:39:00,
2013-06-17 20:40:00,82.6,76.9,29.81,SSW,203,9.0,17.2,83,0.00,,---,0.00,0.00,VWS V14.01,2013-06-18 01:40:00,
2013-06-17 20:44:00,82.6,77.3,29.81,SE,138,14.0,17.2,84,0.00,,---,0.00,0.00,VWS V14.01,2013-06-18 01:44:00,
2013-06-17 20:45:00,82.6,77.3,29.82,South,172,5.0,17.2,84,0.00,,---,0.00,0.00,VWS V14.01,2013-06-18 01:45:00,
2013-06-17 20:49:00,82.4,77.1,29.82,SE,146,3.0,19.2,84,0.00,,---,0.00,0.00,VWS V14.01,2013-06-18 01:49:00,
2013-06-17 20:50:00,82.6,76.9,29.82,SSE,154,5.0,19.2,83,0.00,,---,0.00,0.00,VWS V14.01,2013-06-18 01:50:00,
2013-06-17 20:54:00,82.6,76.9,29.82,SE,126,13.0,17.2,83,0.00,,---,0.00,0.00,VWS V14.01,2013-06-18 01:54:00,
2013-06-17 20:55:00,82.6,76.9,29.82,SE,136,4.0,17.2,83,0.00,,---,0.00,0.00,VWS V14.01,2013-06-18 01:55:00,
2013-06-17 20:59:00,82.6,76.6,29.82,SSW,195,7.0,21.2,82,0.00,,---,0.00,0.00,VWS V14.01,2013-06-18 01:59:00,
2013-06-17 21:00:00,82.8,76.8,29.82,SSE,152,16.0,21.2,82,0.00,,---,0.00,0.00,VWS V14.01,2013-06-18 02:00:00,
2013-06-17 21:04:00,82.6,76.6,29.82,SE,146,6.0,18.2,82,0.00,,---,0.00,0.00,VWS V14.01,2013-06-18 02:04:00,
2013-06-17 21:05:00,82.8,76.8,29.82,SSE,151,9.0,18.2,82,0.00,,---,0.00,0.00,VWS V14.01,2013-06-18 02:05:00,
2013-06-17 21:09:00,82.8,76.8,29.82,SE,135,8.0,22.2,82,0.00,,---,0.00,0.00,VWS V14.01,2013-06-18 02:09:00,
2013-06-17 21:10:00,83.0,76.9,29.82,South,175,11.0,22.2,82,0.00,,---,0.00,0.00,VWS V14.01,2013-06-18 02:10:00,
2013-06-17 21:14:00,82.8,76.8,29.82,SE,132,8.0,21.2,82,0.00,,---,0.00,0.00,VWS V14.01,2013-06-18 02:14:00,
2013-06-17 21:15:00,82.6,76.6,29.83,SSE,165,4.0,21.2,82,0.00,,---,0.00,0.00,VWS V14.01,2013-06-18 02:15:00,
2013-06-17 21:19:00,82.6,76.9,29.83,SSE,157,16.0,18.2,83,0.00,,---,0.00,0.00,VWS V14.01,2013-06-18 02:19:00,
2013-06-17 21:20:00,82.6,76.9,29.83,SE,144,11.0,18.2,83,0.00,,---,0.00,0.00,VWS V14.01,2013-06-18 02:20:00,
2013-06-17 21:24:00,82.6,77.3,29.83,SSE,166,11.0,18.2,84,0.00,,---,0.00,0.00,VWS V14.01,2013-06-18 02:24:00,
2013-06-17 21:25:00,82.6,77.3,29.83,SSE,164,6.0,18.2,84,0.00,,---,0.00,0.00,VWS V14.01,2013-06-18 02:25:00,
2013-06-17 21:29:00,82.6,77.3,29.83,SSE,147,10.0,16.2,84,0.00,,---,0.00,0.00,VWS V14.01,2013-06-18 02:29:00,
2013-06-17 21:30:00,82.6,77.3,29.83,SE,137,11.0,16.2,84,0.00,,---,0.00,0.00,VWS V14.01,2013-06-18 02:30:00,
2013-06-17 21:34:00,82.4,77.1,29.83,SSE,156,10.0,17.2,84,0.00,,---,0.00,0.00,VWS V14.01,2013-06-18 02:34:00,
2013-06-17 21:35:00,82.6,77.3,29.83,SE,140,9.0,17.2,84,0.00,,---,0.00,0.00,VWS V14.01,2013-06-18 02:35:00,
2013-06-17 21:39:00,82.4,77.1,29.83,SSE,148,4.0,18.2,84,0.00,,---,0.00,0.00,VWS V14.01,2013-06-18 02:39:00,
2013-06-17 21:40:00,82.4,77.1,29.83,SSE,157,10.0,19.2,84,0.00,,---,0.00,0.00,VWS V14.01,2013-06-18 02:40:00,
2013-06-17 21:44:00,82.4,77.1,29.83,SSW,202,11.0,20.2,84,0.00,,---,0.00,0.00,VWS V14.01,2013-06-18 02:44:00,
2013-06-17 21:45:00,82.4,77.1,29.83,SE,144,15.0,20.2,84,0.00,,---,0.00,0.00,VWS V14.01,2013-06-18 02:45:00,
2013-06-17 21:49:00,82.6,76.9,29.83,South,183,8.0,22.2,83,0.00,,---,0.00,0.00,VWS V14.01,2013-06-18 02:49:00,
2013-06-17 21:50:00,82.8,77.1,29.83,SE,138,6.0,22.2,83,0.00,,---,0.00,0.00,VWS V14.01,2013-06-18 02:50:00,
2013-06-17 21:54:00,82.8,77.1,29.83,SE,146,5.0,14.2,83,0.00,,---,0.00,0.00,VWS V14.01,2013-06-18 02:54:00,
2013-06-17 21:55:00,82.8,77.1,29.83,ESE,123,17.0,20.2,83,0.00,,---,0.00,0.00,VWS V14.01,2013-06-18 02:55:00,
2013-06-17 21:59:00,82.6,76.9,29.83,SSE,152,12.0,18.2,83,0.00,,---,0.00,0.00,VWS V14.01,2013-06-18 02:59:00,
2013-06-17 22:00:00,82.6,76.9,29.83,SSE,150,4.0,20.2,83,0.00,,---,0.00,0.00,VWS V14.01,2013-06-18 03:00:00,
2013-06-17 22:04:00,82.6,77.3,29.83,SSE,150,12.0,16.2,84,0.00,,---,0.00,0.00,VWS V14.01,2013-06-18 03:04:00,
2013-06-17 22:05:00,82.6,77.3,29.83,ESE,123,4.0,16.2,84,0.00,,---,0.00,0.00,VWS V14.01,2013-06-18 03:05:00,
2013-06-17 22:09:00,82.6,77.3,29.83,SE,136,10.0,14.2,84,0.00,,---,0.00,0.00,VWS V14.01,2013-06-18 03:09:00,
2013-06-17 22:10:00,82.6,77.3,29.83,ESE,117,7.0,14.2,84,0.00,,---,0.00,0.00,VWS V14.01,2013-06-18 03:10:00,
2013-06-17 22:14:00,82.4,77.4,29.83,SSE,154,11.0,19.2,85,0.00,,---,0.00,0.00,VWS V14.01,2013-06-18 03:14:00,
2013-06-17 22:15:00,82.4,77.4,29.84,SE,137,16.0,19.2,85,0.00,,---,0.00,0.00,VWS V14.01,2013-06-18 03:15:00,
2013-06-17 22:19:00,82.4,77.4,29.84,SE,130,4.0,17.2,85,0.00,,---,0.00,0.00,VWS V14.01,2013-06-18 03:19:00,
2013-06-17 22:20:00,82.4,77.4,29.84,SSE,153,12.0,22.2,85,0.00,,---,0.00,0.00,VWS V14.01,2013-06-18 03:20:00,
2013-06-17 22:24:00,82.2,77.2,29.84,SSE,150,5.0,17.2,85,0.00,,---,0.00,0.00,VWS V14.01,2013-06-18 03:24:00,
2013-06-17 22:25:00,82.2,77.2,29.84,SSE,160,4.0,17.2,85,0.00,,---,0.00,0.00,VWS V14.01,2013-06-18 03:25:00,
2013-06-17 22:29:00,82.2,77.6,29.84,SE,137,9.0,15.2,86,0.00,,---,0.00,0.00,VWS V14.01,2013-06-18 03:29:00,
2013-06-17 22:30:00,82.4,77.4,29.84,SE,126,9.0,19.2,85,0.00,,---,0.00,0.00,VWS V14.01,2013-06-18 03:30:00,
2013-06-17 22:34:00,82.4,77.1,29.84,SSE,157,6.0,17.2,84,0.00,,---,0.00,0.00,VWS V14.01,2013-06-18 03:34:00,
2013-06-17 22:35:00,82.4,77.1,29.84,SSE,150,15.0,17.2,84,0.00,,---,0.00,0.00,VWS V14.01,2013-06-18 03:35:00,
2013-06-17 22:39:00,82.4,77.1,29.84,South,184,18.0,21.2,84,0.00,,---,0.00,0.00,VWS V14.01,2013-06-18 03:39:00,
2013-06-17 22:40:00,82.2,76.9,29.84,SSE,155,12.0,21.2,84,0.00,,---,0.00,0.00,VWS V14.01,2013-06-18 03:40:00,
2013-06-17 22:44:00,82.2,76.9,29.84,SE,140,6.0,18.2,84,0.00,,---,0.00,0.00,VWS V14.01,2013-06-18 03:44:00,
2013-06-17 22:45:00,82.2,76.9,29.84,SSE,161,6.0,18.2,84,0.00,,---,0.00,0.00,VWS V14.01,2013-06-18 03:45:00,
2013-06-17 22:49:00,82.2,76.9,29.84,SSE,149,14.0,21.2,84,0.00,,---,0.00,0.00,VWS V14.01,2013-06-18 03:49:00,
2013-06-17 22:50:00,82.2,77.2,29.84,SSE,159,6.0,21.2,85,0.00,,---,0.00,0.00,VWS V14.01,2013-06-18 03:50:00,
2013-06-17 22:54:00,82.2,77.2,29.84,SE,145,6.0,16.2,85,0.00,,---,0.00,0.00,VWS V14.01,2013-06-18 03:54:00,
2013-06-17 22:55:00,82.2,77.2,29.84,SSE,163,7.0,16.2,85,0.00,,---,0.00,0.00,VWS V14.01,2013-06-18 03:55:00,
2013-06-17 22:59:00,82.2,77.2,29.84,SE,136,5.0,19.2,85,0.00,,---,0.00,0.00,VWS V14.01,2013-06-18 03:59:00,
2013-06-17 23:00:00,82.4,77.4,29.86,SSE,149,10.0,20.2,85,0.00,,---,0.00,0.00,VWS V14.01,2013-06-18 04:00:00,
2013-06-17 23:01:00,82.4,77.4,29.85,SE,143,7.0,20.2,85,0.00,,---,0.00,0.00,VWS V14.01,2013-06-18 04:01:00,
2013-06-17 23:05:00,82.4,77.4,29.86,SSE,154,9.0,16.2,85,0.00,,---,0.00,0.00,VWS V14.01,2013-06-18 04:05:00,
2013-06-17 23:06:00,82.4,77.4,29.85,SSE,157,7.0,10.2,85,0.00,,---,0.00,0.00,VWS V14.01,2013-06-18 04:06:00,
2013-06-17 23:10:00,82.4,77.1,29.86,SE,128,9.0,17.2,84,0.00,,---,0.00,0.00,VWS V14.01,2013-06-18 04:10:00,
2013-06-17 23:11:00,82.4,77.1,29.85,SSE,159,6.0,11.2,84,0.00,,---,0.00,0.00,VWS V14.01,2013-06-18 04:11:00,
2013-06-17 23:15:00,82.4,77.1,29.86,SE,140,14.0,15.2,84,0.00,,---,0.00,0.00,VWS V14.01,2013-06-18 04:15:00,
2013-06-17 23:16:00,82.4,77.1,29.87,South,175,4.0,15.2,84,0.00,,---,0.00,0.00,VWS V14.01,2013-06-18 04:16:00,
2013-06-17 23:20:00,82.4,77.1,29.86,ESE,121,10.0,16.2,84,0.00,,---,0.00,0.00,VWS V14.01,2013-06-18 04:20:00,
2013-06-17 23:21:00,82.4,77.1,29.87,South,177,5.0,12.2,84,0.00,,---,0.00,0.00,VWS V14.01,2013-06-18 04:21:00,
2013-06-17 23:25:00,82.4,77.1,29.86,SE,141,10.0,17.2,84,0.00,,---,0.00,0.00,VWS V14.01,2013-06-18 04:25:00,
2013-06-17 23:26:00,82.4,77.1,29.87,SE,143,11.0,16.2,84,0.00,,---,0.00,0.00,VWS V14.01,2013-06-18 04:26:00,
2013-06-17 23:30:00,82.2,76.9,29.87,SSE,152,10.0,20.2,84,0.00,,---,0.00,0.00,VWS V14.01,2013-06-18 04:30:00,
2013-06-17 23:31:00,82.2,76.9,29.87,SE,146,8.0,11.2,84,0.00,,---,0.00,0.00,VWS V14.01,2013-06-18 04:31:00,
2013-06-17 23:35:00,82.2,76.5,29.87,SSE,154,15.0,20.2,83,0.00,,---,0.00,0.00,VWS V14.01,2013-06-18 04:35:00,
2013-06-17 23:36:00,82.2,76.5,29.87,SSE,156,8.0,16.2,83,0.00,,---,0.00,0.00,VWS V14.01,2013-06-18 04:36:00,
2013-06-17 23:40:00,82.2,76.9,29.87,South,182,8.0,18.2,84,0.00,,---,0.00,0.00,VWS V14.01,2013-06-18 04:40:00,
2013-06-17 23:41:00,82.2,76.9,29.87,SE,141,8.0,9.2,84,0.00,,---,0.00,0.00,VWS V14.01,2013-06-18 04:41:00,
2013-06-17 23:45:00,82.0,77.1,29.87,SSE,167,2.0,14.2,85,0.00,,---,0.00,0.00,VWS V14.01,2013-06-18 04:45:00,
2013-06-17 23:46:00,82.0,77.1,29.87,SSE,162,5.0,6.2,85,0.00,,---,0.00,0.00,VWS V14.01,2013-06-18 04:46:00,
2013-06-17 23:50:00,81.8,76.8,29.87,SE,133,13.0,20.2,85,0.00,,---,0.00,0.00,VWS V14.01,2013-06-18 04:50:00,
2013-06-17 23:51:00,81.8,76.8,29.87,SE,133,12.0,14.2,85,0.00,,---,0.00,0.00,VWS V14.01,2013-06-18 04:51:00,
2013-06-17 23:55:00,82.0,76.7,29.87,SSE,161,5.0,18.2,84,0.00,,---,0.00,0.00,VWS V14.01,2013-06-18 04:55:00,
2013-06-17 23:56:00,82.0,76.7,29.87,SE,134,4.0,7.2,84,0.00,,---,0.00,0.00,VWS V14.01,2013-06-18 04:56:00,